sat.trackr.live / text

‹ back to catalog

STARLINK-5320

NORAD 55289 · 2023-010W

PAYLOAD ACTIVE UNKNOWN

§ Identity

Operator
Country
US
Launch date
2023-01-19
Launch site
AFWTR
Launch vehicle
Mass (kg)
RCS (m²)

Purposes: comms

External: N2YO · Heavens-Above · Gunter

§ Orbital elements

Epoch: 2026-09-20T09:44:25.831392Z

Period
96.11 min
Inclination
69.9974°
Eccentricity
0.0004110
Mean motion
14.98339864 rev/d
Perigee alt
569.2 km
Apogee alt
574.9 km
Semi-major
6,950.2 km
B*
2.2188e-5
RAAN
253.5904°
Arg perigee
266.3910°
Mean anomaly
93.6779°
Rev number
20,243

§ Raw data

STARLINK-53201 55289U 23010W   26263.40585453  .00000172  00000+0  22188-4 0  99922 55289  69.9974 253.5904 0004110 266.3910  93.6779 14.98339864202433

JSON: /api/v1/satellites/55289 · /tle

For live sub-satellite position, see the globe view (requires WebGL).

§ Visibility from observer

Set your observer location to see the next 7 days of passes ≥ 10°. The values pass through the URL so the page stays shareable.

No JS? Fill the form by hand. The geolocation button needs JavaScript.